Tracking 31080 objects as of 20-Jul-2025
HD Live streaming from Space Station
objects crossing your sky now

STARLINK-1456

Track STARLINK-1456 now!
10-day predictions
STARLINK-1456 is classified as:


NORAD ID: 45673
Int'l Code: 2020-035S
Perigee: 553.3 km
Apogee: 555.4 km
Inclination: 53.1 °
Period: 95.6 minutes
Semi major axis: 6925 km
RCS: Unknown
Launch date: June 4, 2020
Source: United States (US)
Launch site: AIR FORCE EASTERN TEST RANGE (AFETR)
Your satellite tracking list
Your tracking list is empty




NASA's NSSDC Master Catalog

Two Line Element Set (TLE):
1 45673U 20035S   25200.92313994  .00000278  00000-0  37591-4 0  9990
2 45673  53.0553  31.5470 0001463  89.2409 270.8747 15.06396737283245
Source of the keplerian elements: AFSPC